Satellite-Ground Cal/Val Region Overpasses Predictions

Prediction of Satellite NPP Overpassing Cal/Val Region: PacNW

Region Location: (Latitude: 10.00, Longitude: 139.50) to (Latitude: 22.70, Longitude: 165.60).

Table of predicted overpasses for the next 14.0 days since TLE Epoch: 3/20/2015
Interval Starting Time Starting Location Ending Time Ending Location
1 03/20/2015 15:42:24 ( 22.69, 150.76) 03/20/2015 15:46:00 ( 10.01, 147.76)
2 03/21/2015 02:51:29 ( 10.02, 158.31) 03/21/2015 02:55:04 ( 22.65, 155.31)
3 03/21/2015 15:23:22 ( 22.66, 155.51) 03/21/2015 15:26:57 ( 10.04, 152.52)
4 03/22/2015 02:32:26 ( 10.06, 163.06) 03/22/2015 02:36:01 ( 22.68, 160.06)
5 03/22/2015 15:04:18 ( 22.69, 160.28) 03/22/2015 15:07:54 ( 10.01, 157.27)
6 03/23/2015 02:16:05 ( 19.55, 165.59) 03/23/2015 02:16:58 ( 22.66, 164.83)
7 03/23/2015 03:54:53 ( 10.04, 142.44) 03/23/2015 03:58:24 ( 22.43, 139.51)
8 03/23/2015 14:45:16 ( 22.66, 165.03) 03/23/2015 14:48:51 ( 10.03, 162.04)
9 03/23/2015 16:26:46 ( 22.65, 139.65) 03/23/2015 16:26:56 ( 22.06, 139.51)
10 03/24/2015 03:35:49 ( 10.02, 147.21) 03/24/2015 03:39:24 ( 22.64, 144.22)
11 03/24/2015 16:07:42 ( 22.67, 144.42) 03/24/2015 16:11:17 ( 10.05, 141.42)
12 03/25/2015 03:16:47 ( 10.05, 151.96) 03/25/2015 03:20:22 ( 22.68, 148.96)
13 03/25/2015 15:48:39 ( 22.69, 149.18) 03/25/2015 15:52:15 ( 10.01, 146.17)
14 03/26/2015 02:57:43 ( 10.03, 156.72) 03/26/2015 03:01:18 ( 22.66, 153.73)
15 03/26/2015 15:29:36 ( 22.66, 153.93) 03/26/2015 15:33:11 ( 10.04, 150.94)
16 03/27/2015 02:38:40 ( 10.01, 161.49) 03/27/2015 02:42:16 ( 22.69, 158.48)
17 03/27/2015 15:10:33 ( 22.68, 158.70) 03/27/2015 15:14:09 ( 10.00, 155.69)
18 03/28/2015 02:20:25 ( 12.87, 165.59) 03/28/2015 02:23:12 ( 22.67, 163.24)
19 03/28/2015 04:01:07 ( 10.06, 140.86) 03/28/2015 04:02:47 ( 15.93, 139.50)
20 03/28/2015 14:51:30 ( 22.64, 163.44) 03/28/2015 14:55:05 ( 10.02, 160.45)
21 03/29/2015 03:42:04 ( 10.04, 145.62) 03/29/2015 03:45:39 ( 22.66, 142.63)
22 03/29/2015 14:35:34 ( 11.69, 165.59) 03/29/2015 14:36:02 ( 10.04, 165.22)
23
